GW6074 Weather Reports


time (UTC)temp
C
wind
direction
speed
KPH
gust
KPH
rain 1hr
cm
rain 24hr
cm
rain mn
cm
humidity
%
barometer
mb
20260504150952 15 184 19.3 24.1 0.00 0.53 0.53 84
20260504150449 15 77 12.9 16.1 0.00 0.53 0.53 83
20260504140915 14 219 20.9 24.1 0.00 0.51 0.51 81
20260504140411 14 190 19.3 29.0 0.00 0.51 0.51 81
20260504130337 15 160 14.5 27.4 0.00 0.51 0.51 80
20260504120300 15 213 14.5 35.4 0.00 0.51 0.51 76
20260504110224 13 139 17.7 30.6 0.00 0.51 0.51 84
20260504100147 13 187 19.3 24.1 0.00 0.51 0.51 83
20260504090110 13 237 12.9 22.5 1.32 0.51 0.51 81
20260504081541 14 225 30.6 37.0 0.00 0.08 0.08 83
20260504081036 14 221 14.5 20.9 0.00 0.08 0.08 81
20260504080533 15 245 19.3 30.6 0.00 0.08 0.08 79
20260504050346 13 116 3.2 4.8 0.00 0.00 0.00 72
20260504045843 13 223 3.2 6.4 0.00 0.13 0.13 74
20260504045338 13 163 3.2 9.7 0.00 0.13 0.13 73
20260504044835 13 174 1.6 6.4 0.00 0.13 0.13 73
20260504044332 13 167 4.8 9.7 0.00 0.13 0.13 73
20260504043830 13 40 4.8 14.5 0.00 0.13 0.13 73
20260504043326 13 180 4.8 14.5 0.00 0.13 0.13 74
20260504042823 13 132 1.6 3.2 0.00 0.13 0.13 73
20260504042320 13 165 3.2 11.3 0.00 0.13 0.13 73
20260504041816 14 190 1.6 3.2 0.00 0.13 0.13 73
20260504041312 14 193 3.2 4.8 0.00 0.13 0.13 72
20260504040809 14 151 1.6 3.2 0.00 0.13 0.13 73
20260504040306 14 160 3.2 4.8 0.00 0.13 0.13 72
20260504035802 14 150 1.6 11.3 0.00 0.13 0.13 72
20260504035259 14 186 4.8 14.5 0.00 0.13 0.13 72
20260504034757 14 106 4.8 9.7 0.00 0.13 0.13 71
20260504034254 14 192 4.8 11.3 0.00 0.13 0.13 72
20260504033751 15 100 4.8 16.1 0.00 0.13 0.13 70
20260504033249 15 188 3.2 16.1 0.00 0.13 0.13 70
20260504032745 15 135 9.7 17.7 0.00 0.13 0.13 70
20260504032242 15 193 8.0 24.1 0.00 0.13 0.13 71
20260504031739 15 240 3.2 17.7 0.00 0.13 0.13 72
20260504031237 15 171 4.8 11.3 0.00 0.13 0.13 72
20260504030732 15 131 3.2 6.4 0.00 0.13 0.13 70
20260504030230 15 192 3.2 24.1 0.00 0.13 0.13 69
20260504025726 15 194 4.8 9.7 0.00 0.13 0.13 68
20260504025223 15 192 6.4 11.3 0.00 0.13 0.13 69
20260504024720 15 218 3.2 4.8 0.00 0.13 0.13 68
20260504024217 15 168 1.6 9.7 0.00 0.13 0.13 67
20260504023713 15 211 14.5 29.0 0.00 0.13 0.13 66
20260504023209 15 116 3.2 16.1 0.00 0.13 0.13 68
20260504022706 15 190 4.8 11.3 0.00 0.13 0.13 68
20260504022202 15 118 4.8 11.3 0.00 0.13 0.13 67
20260504021700 16 180 3.2 12.9 0.00 0.13 0.13 67
20260504021156 16 74 3.2 20.9 0.00 0.13 0.13 67
20260504020653 16 124 6.4 9.7 0.00 0.13 0.13 67
20260504020149 16 158 3.2 12.9 0.00 0.13 0.13 67
20260504015646 16 64 3.2 9.7 0.00 0.13 0.13 66
20260504015142 15 221 6.4 14.5 0.00 0.13 0.13 68
20260504014638 15 114 3.2 11.3 0.00 0.13 0.13 68
20260504014135 15 156 8.0 11.3 0.00 0.13 0.13 69
20260504013633 15 180 3.2 11.3 0.00 0.13 0.13 69
20260504013130 16 170 4.8 11.3 0.00 0.13 0.13 67
20260504012627 16 212 4.8 6.4 0.18 0.13 0.13 67
20260504012125 16 127 3.2 6.4 0.30 0.13 0.13 68
20260504011621 16 232 3.2 4.8 0.30 0.10 0.10 68
20260504011118 16 129 1.6 9.7 0.48 0.08 0.08 66
20260504010614 17 157 3.2 6.4 0.30 0.05 0.05 62
20260504010110 17 181 8.0 22.5 0.00 0.00 0.00 54
20260504005607 17 155 3.2 6.4 0.00 0.00 0.00 53
20260504005104 17 251 9.7 14.5 0.00 0.00 0.00 53
20260504004602 17 184 6.4 12.9 0.00 0.00 0.00 54
20260504004059 18 221 4.8 12.9 0.00 0.00 0.00 54
20260504003555 18 80 1.6 9.7 0.00 0.00 0.00 53
20260504003052 18 100 3.2 12.9 0.00 0.00 0.00 50
20260504002548 18 200 4.8 12.9 0.00 0.00 0.00 50
20260504002046 18 174 8.0 17.7 0.00 0.00 0.00 49
20260504001544 18 218 16.1 22.5 0.00 0.00 0.00 48
20260504001039 19 206 4.8 17.7 0.00 0.00 0.00 46
20260504000537 19 210 12.9 22.5 0.00 0.00 0.00 45
20260504000034 19 200 12.9 22.5 0.00 0.00 0.00 45
20260503235532 19 185 14.5 22.5 0.00 0.00 0.00 45
20260503235029 19 173 19.3 24.1 0.00 0.00 0.00 45
20260503234526 19 209 11.3 22.5 0.00 0.00 0.00 45
20260503234025 19 212 12.9 22.5 0.00 0.00 0.00 45
20260503233520 20 221 14.5 24.1 0.00 0.00 0.00 45
20260503233017 20 217 22.5 33.8 0.00 0.00 0.00 44
20260503232514 20 196 17.7 27.4 0.00 0.00 0.00 44
20260503232012 20 191 14.5 22.5 0.00 0.00 0.00 44
20260503231509 20 192 11.3 25.7 0.00 0.00 0.00 44
20260503231006 20 213 9.7 22.5 0.00 0.00 0.00 43
20260503230502 20 197 12.9 29.0 0.00 0.00 0.00 43
20260503230000 20 213 24.1 30.6 0.00 0.00 0.00 42
20260503225456 20 220 20.9 29.0 0.00 0.00 0.00 41
20260503224952 20 206 25.7 33.8 0.00 0.00 0.00 41
20260503224449 20 188 20.9 41.8 0.00 0.00 0.00 41
20260503223947 20 232 17.7 25.7 0.00 0.00 0.00 42
20260503223445 20 233 17.7 33.8 0.00 0.00 0.00 40
20260503222939 20 245 25.7 30.6 0.00 0.00 0.00 41
20260503222439 20 236 22.5 38.6 0.00 0.00 0.00 41
20260503221936 20 252 19.3 29.0 0.00 0.00 0.00 40
20260503221435 20 261 22.5 29.0 0.00 0.00 0.00 42
20260503220931 20 214 14.5 22.5 0.00 0.00 0.00 41
20260503220428 20 220 20.9 33.8 0.00 0.00 0.00 42
20260503215925 20 241 27.4 40.2 0.00 0.00 0.00 40
20260503215421 20 243 24.1 38.6 0.00 0.00 0.00 42
20260503214919 20 257 20.9 35.4 0.00 0.00 0.00 42
20260503214416 20 232 22.5 33.8 0.00 0.00 0.00 42
20260503213914 20 240 16.1 27.4 0.00 0.00 0.00 43
20260503213411 20 199 19.3 33.8 0.00 0.00 0.00 41
20260503212908 20 206 22.5 37.0 0.00 0.00 0.00 41
20260503212406 20 205 19.3 33.8 0.00 0.00 0.00 42
20260503211902 20 190 19.3 40.2 0.00 0.00 0.00 42
20260503211359 20 208 17.7 30.6 0.00 0.00 0.00 44
20260503210854 20 204 25.7 41.8 0.00 0.00 0.00 41
20260503210352 20 209 25.7 35.4 0.00 0.00 0.00 42
20260503205847 20 216 20.9 38.6 0.00 0.00 0.00 43
20260503205344 19 217 17.7 40.2 0.00 0.00 0.00 42
20260503204840 19 198 25.7 38.6 0.00 0.00 0.00 42
20260503204337 19 228 41.8 56.3 0.00 0.00 0.00 42
20260503203834 19 202 19.3 53.1 0.00 0.00 0.00 43
20260503203332 19 248 29.0 37.0 0.00 0.00 0.00 42
20260503202829 19 263 22.5 33.8 0.00 0.00 0.00 41
20260503202327 19 188 30.6 38.6 0.00 0.00 0.00 41
20260503201825 18 202 33.8 46.7 0.00 0.00 0.00 42
20260503201321 18 201 33.8 51.5 0.00 0.00 0.00 42
20260503200819 18 209 25.7 38.6 0.00 0.00 0.00 43
20260503200315 19 211 33.8 38.6 0.00 0.00 0.00 42
20260503195812 18 194 17.7 35.4 0.00 0.00 0.00 44
20260503195309 18 207 35.4 53.1 0.00 0.00 0.00 43
20260503194806 18 206 38.6 49.9 0.00 0.00 0.00 43
20260503194302 18 244 24.1 43.5 0.00 0.00 0.00 45
20260503193758 18 174 17.7 43.5 0.00 0.00 0.00 44
20260503193254 18 223 30.6 40.2 0.00 0.00 0.00 43
20260503192750 18 198 22.5 43.5 0.00 0.00 0.00 46
20260503192246 18 230 25.7 37.0 0.00 0.00 0.00 44
20260503191743 18 224 22.5 38.6 0.00 0.00 0.00 46
20260503191240 17 253 19.3 35.4 0.00 0.00 0.00 48
20260503190737 17 256 27.4 43.5 0.00 0.00 0.00 46
20260503190233 17 260 29.0 38.6 0.00 0.00 0.00 46
20260503185730 17 220 33.8 43.5 0.00 0.00 0.00 47
20260503185226 17 249 20.9 37.0 0.00 0.00 0.00 49
20260503184721 17 204 25.7 37.0 0.00 0.00 0.00 47
20260503184217 17 221 25.7 43.5 0.00 0.00 0.00 50
20260503183714 17 192 29.0 38.6 0.00 0.00 0.00 46
20260503183211 17 220 20.9 41.8 0.00 0.00 0.00 50
20260503182709 17 199 25.7 30.6 0.00 0.00 0.00 47
20260503182208 17 208 27.4 33.8 0.00 0.00 0.00 50
20260503181703 17 217 17.7 30.6 0.00 0.00 0.00 48
20260503181200 17 241 24.1 37.0 0.00 0.00 0.00 49
20260503180657 17 222 24.1 30.6 0.00 0.00 0.00 47
20260503180156 17 215 29.0 37.0 0.00 0.00 0.00 49
20260503175652 17 281 32.2 37.0 0.00 0.00 0.00 48
20260503175149 16 232 27.4 35.4 0.00 0.00 0.00 49
20260503174645 16 247 32.2 37.0 0.00 0.00 0.00 48
20260503174143 16 263 19.3 40.2 0.00 0.00 0.00 48
20260503173638 16 212 19.3 40.2 0.00 0.00 0.00 51
20260503173135 16 288 22.5 35.4 0.00 0.00 0.00 48
20260503172632 16 210 22.5 27.4 0.00 0.00 0.00 53
20260503172129 16 217 25.7 37.0 0.00 0.00 0.00 52
20260503171625 16 234 19.3 35.4 0.00 0.00 0.00 53
20260503171123 16 207 22.5 29.0 0.00 0.00 0.00 50
20260503170620 16 215 20.9 35.4 0.00 0.00 0.00 52
20260503170116 16 213 20.9 33.8 0.00 0.00 0.00 49